Alexandria, Egypt

3:24 AM EET on September 23, 2017 (GMT +0200)
Alexandria

Weather History for HEAX - April, 2014

Change the Weather History Date:

Sunday, April 13, 2014

  Actual Average Record
Temperature  
Mean Temperature 68 °F -  
Max Temperature 77 °F 74 °F 87 °F (1998)
Min Temperature 59 °F 59 °F 50 °F (2004)
Cooling Degree Days 3    
Growing Degree Days 18 (Base 50)    
Moisture  
Dew Point 53 °F    
Average Humidity 61    
Maximum Humidity 82    
Minimum Humidity 31    
Precipitation  
Precipitation 0.00 in 0.00 in - ()
Sea Level Pressure  
Sea Level Pressure 30.01 in    
Wind  
Wind Speed 5 mph ()    
Max Wind Speed 10 mph    
Max Gust Speed -    
Visibility 6.1 miles    
Events      
Averages and records for this station are not official NWS values.
T = Trace of Precipitation, MM = Missing Value Source: Averaged Metar Reports

Daily Weather History Graph

Daily Weather History Graph

Search for Another Location

Airport or City:

Trip Planner

Search our weather history database for the weather conditions in past years. The results will help you decide how hot, cold, wet, or windy it might be!

Date:

Astronomy

Apr. 13, 2014 Rise Set
Actual Time 5:34 AM EET 6:27 PM EET
Civil Twilight 5:10 AM EET 6:51 PM EET
Nautical Twilight 4:40 AM EET 7:21 PM EET
Astronomical Twilight 4:11 AM EET 7:51 PM EET
Moon 4:51 PM EET (4/13) 4:15 AM EET (4/13)
Length of Visible Light 13h 41m
Length of Day
12h 52m
Waxing Gibbous, 96% of the Moon is Illuminated
Apr 13
Waxing Gibbous
Apr 15
Full
Apr 22
Last Quarter
Apr 29
New
May 7
First Quarter

Hourly Weather History & Observations

Time (EET) Temp. Dew Point Humidity Pressure Visibility Wind Dir Wind Speed Gust Speed Precip Events Conditions
12:00 AM 62.6 °F 57.2 °F 82% 30.04 in 6.2 mi NNE 4.6 mph - N/A   Partly Cloudy
1:00 AM 62.6 °F 55.4 °F 77% 30.04 in 6.2 mi North 3.5 mph - N/A   Partly Cloudy
2:00 AM 61 °F 55 °F 76% 30.02 in 6 mi NNE 3.5 mph - -   Scattered Clouds
2:00 AM 60.8 °F 55.4 °F 82% 30.01 in 6.2 mi NNE 3.5 mph - N/A   Partly Cloudy
3:00 AM 60.8 °F 53.6 °F 77% 30.01 in - North 5.8 mph - N/A   Clear
4:00 AM 60.8 °F 51.8 °F 72% 29.98 in - North 4.6 mph - N/A   Clear
5:00 AM 60 °F 52 °F 69% 30.01 in 6 mi NNE 3.5 mph - -  
5:00 AM 60.8 °F 51.8 °F 72% 30.01 in - NNE 3.5 mph - N/A   Clear
6:00 AM 59.0 °F 51.8 °F 77% 30.01 in - ENE 3.5 mph - N/A   Clear
7:00 AM 62.6 °F 53.6 °F 72% 30.04 in - ENE 2.3 mph - N/A   Clear
8:00 AM 66 °F 54 °F 57% 30.05 in 6 mi East 4.6 mph - -   Scattered Clouds
8:00 AM 66.2 °F 53.6 °F 64% 30.04 in 6.2 mi East 4.6 mph - N/A   Scattered Clouds
9:00 AM 68.0 °F 51.8 °F 56% 30.04 in - ENE 5.8 mph - N/A   Clear
10:00 AM 71.6 °F 50.0 °F 46% 30.06 in - East 4.6 mph - N/A   Clear
11:00 AM 74 °F 49 °F 31% 30.06 in 6 mi East 3.5 mph - -   Clear
11:00 AM 75.2 °F 50.0 °F 41% 30.04 in - East 3.5 mph - N/A   Clear
12:00 PM 75.2 °F 46.4 °F 36% 30.04 in - NE 3.5 mph - N/A   Clear
1:00 PM 77.0 °F 50.0 °F 39% 30.01 in - ENE 4.6 mph - N/A   Clear
2:00 PM 77 °F 52 °F 31% 30.00 in 6 mi NE 3.5 mph - -   Clear
2:00 PM 77.0 °F 51.8 °F 41% 29.98 in - NE 3.5 mph - N/A   Clear
3:00 PM 77.0 °F 53.6 °F 44% 29.98 in - NE 6.9 mph - N/A   Clear
4:00 PM 73.4 °F 57.2 °F 57% 29.98 in - North 8.1 mph - N/A   Clear
5:00 PM 72 °F 56 °F 47% 29.99 in 6 mi NNE 8.1 mph - -   Clear
5:00 PM 71.6 °F 55.4 °F 57% 29.98 in - NNE 8.1 mph - N/A   Clear
6:00 PM 68.0 °F 55.4 °F 64% 29.98 in - NNE 9.2 mph - N/A   Clear
7:00 PM 66.2 °F 55.4 °F 68% 29.98 in - NE 10.4 mph - N/A   Clear
8:00 PM 65 °F 55 °F 62% 29.98 in 6 mi NE 9.2 mph - -  
8:00 PM 64.4 °F 55.4 °F 73% 29.98 in - NE 9.2 mph - N/A   Clear
9:00 PM 64.4 °F 55.4 °F 73% 29.98 in - East 8.1 mph - N/A   Clear
10:00 PM 64.4 °F 55.4 °F 73% 29.98 in - ENE 9.2 mph - N/A   Clear
11:00 PM 63 °F 55 °F 67% 29.98 in 6 mi East 6.9 mph - -  
11:00 PM 62.6 °F 55.4 °F 77% 29.98 in - East 6.9 mph - N/A   Clear